Regional Weather Roundup
Issued by NWS

Home | Current Version | Previous Version | Text Only | Print | Product List | Glossary Off
Versions: 1 2 3 4 5 6 7 8 9 10 11 12 13 14 15 16 17 18 19 20 21 22 23 24 25 26 27 28 29 30 31 32 33 34 35 36 37 38 39 40 41 42 43 44 45 46 47 48 49 50

000
ASUS43 KOAX 300810
RWRNE

WEATHER ROUNDUP FOR NEBRASKA
NATIONAL WEATHER SERVICE OMAHA NE
300 AM CDT SAT MAY 30 2015

NOTES: SATELLITE DATA IS BEING USED TO AUGMENT CLOUD COVER ABOVE
       12000 FEET.
       "FAIR" INDICATES FEW OR NO CLOUDS BELOW 12,000 FEET WITH NO
       SIGNIFICANT WEATHER AND/OR OBSTRUCTIONS TO VISIBILITY.

  * THESE STATIONS DO NOT REPORT WEATHER SUCH AS RAIN...SNOW OR FOG.

NEZ001>004-019>022-054>056-300900-
NEBRASKA PANHANDLE

CITY           SKY/WX    TMP DP  RH WIND       PRES   REMARKS
SCOTTSBLUFF    CLOUDY    47  45  93 E8        30.30S
ALLIANCE       FOG       35  35 100 W6        30.28F VSB 1/4 WCI  30
CHADRON        PTCLDY    39  38  96 SW5       30.29S FOG
KIMBALL          N/A    N/A N/A N/A MISG        N/A
SIDNEY         CLOUDY    46  43  89 N5        30.32S
$$

NEZ057>060-069>072-079>082-300900-
SOUTHWEST NEBRASKA

CITY           SKY/WX    TMP DP  RH WIND       PRES   REMARKS
NORTH PLATTE   CLEAR     40  39  97 NW6       30.28S
IMPERIAL       PTCLDY    45  41  86 N8        30.31S
LEXINGTON      MOCLDY    49  43  79 N10       30.26S
MCCOOK         CLOUDY    49  42  77 N12       30.27F
OGALLALA       CLEAR     41  40  96 CALM      30.31S
$$

NEZ005>010-023>029-035>040-094-300900-
NORTH CENTRAL NEBRASKA

CITY           SKY/WX    TMP DP  RH WIND       PRES   REMARKS
VALENTINE      MOCLDY    42  38  85 N6        30.29S
AINSWORTH      CLOUDY    43  39  87 NW8       30.27F
BROKEN BOW     PTCLDY    46  41  82 N12       30.24R
O`NEILL        CLOUDY    46  44  91 N13       30.23F
ORD            MOCLDY    46  41  82 N10       30.21S
THEDFORD       MOCLDY    43  41  93 N6        30.28F
$$

NEZ041-046>049-061>064-073>077-083>087-300900-
SOUTH CENTRAL NEBRASKA

CITY           SKY/WX    TMP DP  RH WIND       PRES   REMARKS
GRAND ISLAND   CLOUDY    49  44  83 N17       30.20R
AURORA         LGT RAIN  49  46  88 N20G25    30.18R
HASTINGS       CLOUDY    49  43  80 N17G30    30.19R
HEBRON         LGT RAIN  49  46  89 N13G22    30.14S
HOLDREGE       CLOUDY    49  41  75 N16G23    30.21F
KEARNEY *      CLOUDY    50  39  66 N17       30.21F
YORK           CLOUDY    50  46  87 N14G22    30.16S
$$

NEZ011>018-030>034-042>045-300900-
NORTHEAST NEBRASKA

CITY           SKY/WX    TMP DP  RH WIND       PRES   REMARKS
NORFOLK        CLOUDY    50  45  83 N15G24    30.17S
ALBION         CLOUDY    49  42  77 N14       30.18S
BLAIR          CLOUDY    49  46  88 N20G25    30.10S
COLUMBUS *     CLOUDY    52  41  66 N14G21    30.18S
FREMONT        CLOUDY    52  45  78 N12G22    30.13S
TEKAMAH        CLOUDY    52  47  83 N15       30.12R
WAYNE          CLOUDY    49  44  82 N20       30.16S
$$

NEZ050>053-065>068-078-088>093-300900-
SOUTHEAST NEBRASKA

CITY           SKY/WX    TMP DP  RH WIND       PRES   REMARKS
LINCOLN        CLOUDY    53  47  79 N20       30.12S
OMAHA EPPLEY   CLOUDY    51  48  89 N20G30    30.09R
BEATRICE       CLOUDY    53  48  85 N21G28    30.11R
FALLS CITY     CLOUDY    56  54  93 N13G23    30.04R
NEBRASKA CITY  CLOUDY    53  52  97 N16G22    30.07R
PLATTSMOUTH    CLOUDY    52  48  86 N14G21    30.08R
$$

NEZ044-045-051>053-067-300900-
OMAHA AREA

CITY           SKY/WX    TMP DP  RH WIND       PRES   REMARKS
OMAHA EPPLEY   CLOUDY    51  48  89 N20G30    30.09R
BLAIR          CLOUDY    49  46  88 N20G25    30.10S
FREMONT        CLOUDY    52  45  78 N12G22    30.13S
MILLARD        CLOUDY    52  48  84 N10       30.10R
OFFUTT AFB     CLOUDY    53  49  86 N16G22    30.08R
PLATTSMOUTH    CLOUDY    52  48  86 N14G21    30.08R
WAHOO          CLOUDY    53  46  79 N20       30.12S
$$



USA.gov is the U.S. government's official web portal to all federal, state and local government web resources and services.